Regional Weather Roundup
Issued by NWS

Home | Current Version | Previous Version | Graphics & Text | Print | Product List | Glossary Off
Versions: 1 2 3 4 5 6 7 8 9 10 11 12 13 14 15 16 17 18 19 20 21 22 23 24 25 26 27 28 29 30 31 32 33 34 35 36 37 38 39 40 41 42 43 44 45 46 47 48 49 50

000
ASUS43 KMKX 082300
RWRWI

WISCONSIN REGIONAL WEATHER ROUNDUP
NATIONAL WEATHER SERVICE MILWAUKEE/SULLIVAN WI
500 PM CST MON FEB 08 2016

NOTE: "FAIR" INDICATES FEW OR NO CLOUDS BELOW 12,000 FEET WITH NO
SIGNIFICANT WEATHER AND/OR OBSTRUCTIONS TO VISIBILITY.

WIZ001-002-006>008-014>016-023>028-090000-
NORTHWEST WISCONSIN

CITY           SKY/WX    TMP DP  RH WIND       PRES   REMARKS
SUPERIOR ARPT  CLOUDY    13   2  63 NW17G23   29.96R WCI  -4
ASHLAND        CLOUDY    14   7  73 NW6       29.89R WCI   5
HAYWARD        LGT SNOW  12   5  73 N8        29.87S WCI   0
SIREN          LGT SNOW  14   5  68 N14G22    29.93R WCI  -1
CUMBERLAND     LGT SNOW  12   7  79 NW13      29.87S WCI  -3
RICE LAKE      FLURRIES  14   7  73 NW10G16   29.90S WCI   1
CHETEK         LGT SNOW  13   8  79 NW9       29.88S WCI   1
LADYSMITH      FLURRIES  15   8  76 NW12G18   29.85S WCI   1
EAU CLAIRE     NOT AVBL
MENOMONIE      FLURRIES  16   6  65 NW9       29.91R WCI   4
NEW RICHMOND   CLOUDY    14   6  71 NW18G25   29.92S HAZE    WCI  -3
OSCEOLA        FLURRIES  15   8  75 NW14      29.97R WCI   0
$$

WIZ003>005-009-010-017-018-090000-
NORTH CENTRAL WISCONSIN

CITY           SKY/WX    TMP DP  RH WIND       PRES   REMARKS
MANITOWISH WTR LGT SNOW  13   9  84 NW18G24   29.75S VSB 1   WCI  -4
ARBOR VITAE    FLURRIES  17  10  76 N9        29.75R WCI   5
WOODRUFF       FLURRIES  17  10  76 N9        29.75R WCI   5
RHINELANDER    FLURRIES  16   8  71 NW7       29.74R WCI   6
EAGLE RIVER    LGT SNOW  16   9  74 NW12      29.72R WCI   2
LAND O LAKES   LGT SNOW  16  11  81 NW10G16   29.73R WCI   3
PHILLIPS       LGT SNOW  14   9  80 NW10G16   29.78R WCI   1
TOMAHAWK       LGT SNOW  17  12  81 NW12      29.76R WCI   4
MEDFORD        LGT SNOW  15  10  83 NW13      29.77R WCI   0
MERRILL        LGT SNOW  19  15  83 N10G18    29.75R WCI   7
$$

WIZ029-030-035-036-043>047-090000-
CENTRAL WISCONSIN

CITY           SKY/WX    TMP DP  RH WIND       PRES   REMARKS
WAUSAU         LGT SNOW  21  15  78 NW12      29.74R WCI   9
MOSINEE        NOT AVBL
MARSHFIELD     LGT SNOW  15   8  73 NW20      29.78R WCI  -2
STEVENS POINT  CLOUDY    21  12  69 NW8G17    29.74R WCI  11
WAUPACA        LGT SNOW  28  20  73 NW10      29.73R WCI  18
WAUTOMA        NOT AVBL
WISC RAPIDS    LGT SNOW  18  10  71 NW20G28   29.79R WCI   2
CAMP DOUGLAS   FLURRIES  18  12  79 NW18G24   29.81R WCI   2
$$

WIZ011>013-019>022-031-037>040-048>050-090000-
NORTHEAST WISCONSIN

CITY           SKY/WX    TMP DP  RH WIND       PRES   REMARKS
ANTIGO         LGT SNOW  19  15  84 NW15G21   29.70R WCI   5
SHAWANO        CLOUDY    30  20  66 NW7       29.71R WCI  23
OCONTO         CLOUDY    26  22  87 N8        29.71R WCI  17
STURGEON BAY   CLOUDY    25  18  74 N18       29.71R WCI  11
GREEN BAY      FLURRIES  27  23  85 NW8       29.71R WCI  19
MANITOWOC      MIX PCPN  28  25  86 N13       29.69R WCI  18
APPLETON       LGT SNOW  27  19  74 NW12      29.69R WCI  16
CLINTONVILLE   CLOUDY    28  21  74 NW7       29.71R WCI  21
OSHKOSH        LGT SNOW  27  20  75 NW14      29.71R WCI  16
$$

WIZ032>034-041-042-053>061-090000-
SOUTHWEST WISCONSIN

CITY           SKY/WX    TMP DP  RH WIND       PRES   REMARKS
LA CROSSE      FLURRIES  16   6  65 NW17      29.89S WCI   0
SPARTA         FLURRIES  17   9  72 NW13G20   29.87R WCI   3
VIROQUA        CLOUDY    15   8  76 NW22      29.82R WCI  -4
BOSCOBEL       CLOUDY    21   9  59 NW13      29.86R WCI   9
PRAIRIE DU CHI CLOUDY    18   7  62 W16G22    29.88R WCI   3
PLATTEVILLE    CLOUDY    21  14  73 NW13      29.80R WCI   9
$$

WIZ056-057-062-063-064-067-068-090000-
SOUTH CENTRAL WISCONSIN

CITY           SKY/WX    TMP DP  RH WIND       PRES   REMARKS
REEDSBURG      CLOUDY    20  11  69 NW15G24   29.79R WCI   6
BARABOO/DELLS  CLOUDY    20  11  68 NW17G24   29.77R WCI   6
LONE ROCK      CLOUDY    21  10  62 NW13G23   29.82R WCI   9
MINERAL POINT  CLOUDY    23  14  68 NW10      29.78R WCI  12
MADISON        FLURRIES  21  13  71 NW15G22   29.76R WCI   8
MIDDLETON      CLOUDY    23  15  71 NW13G21   29.76R WCI  11
WATERTOWN      CLOUDY    24  18  78 NW14      29.72R WCI  11
MONROE         CLOUDY    23  16  74 NW13G22   29.75R WCI  11
JANESVILLE     CLOUDY    25  18  74 NW13      29.75R WCI  13
$$

WIZ051-052-058>065-066-070>072-090000-
SOUTHEAST WISCONSIN

CITY           SKY/WX    TMP DP  RH WIND       PRES   REMARKS
MILWAUKEE      LGT SNOW  26  21  81 NW13      29.70R WCI  15
WAUKESHA       CLOUDY    23  18  80 W16       29.71R WCI  10
MILWAUKEE/TIMM LGT SNOW  27  19  74 NW16      29.70R WCI  14
RACINE         MIX PCPN  27  19  72 NW15      29.71R WCI  15
BURLINGTON     LGT SNOW  24  18  78 NW10G21   29.71R WCI  13
KENOSHA        CLOUDY    26  19  74 NW15      29.70R WCI  14
FOND DU LAC    CLOUDY    27  19  72 NW12      29.71R WCI  17
SHEBOYGAN      LGT SNOW  29  24  82 NW9       29.68R WCI  20
WEST BEND      LGT SNOW  27  21  80 W10G17    29.69R WCI  17
JUNEAU         CLOUDY    23  17  76 NW12G17   29.72R WCI  12
$$

LSZ147-162-090000-
LAKE SUPERIOR

STATION/POSITION TIME  TEMP    WIND        PRES    WAVE
                       AIR SEA DIR/SP/G            HT/PER
                 (UTC) (F)     (DEG/KT/KT) (MB)    (FT/S)
DEVILS ISLAND    2200   15     320/ 21/ 23 1013.0R
PORT WING        2200   17     310/ 16/ 21 1013.2R
SAXON HARBOR     2200   18                 1011.5
$$

LMZ867-665-643>646-090000-
LAKE MICHIGAN

STATION/POSITION TIME  TEMP    WIND        PRES    WAVE
                       AIR SEA DIR/SP/G            HT/PER
                 (UTC) (F)     (DEG/KT/KT) (MB)    (FT/S)
CHAMBERS ISLAND  2200   25     310/ 16/ 18 1005.8R
NORTHPORT PIER   2200   27     350/ 15/ 21 1005.4R
ALGOMA LAKESHORE 2211          330/ 16/ 21   N/A
KEWAUNEE LAKESHO 2200   28     330/  9/ 15 1004.1R
SHEBOYGAN LAKESH 2200   28     300/ 12/ 16 1005.5R
PORT WASHINGTON  2240   28     300/ 11/ 18 1006.1R
MILWAUKEE LAKESH 2210   27     290/ 12/ 15   N/A
KENOSHA   LAKESH 2200   27     290/ 11/ 19 1005.8R
$$

TC  - TEMPERATURE IN CELSIUS
VSB - VISIBILITY IN STATUTE MILES
WCI - WIND CHILL INDEX
HX  - HEAT INDEX





USA.gov is the U.S. government's official web portal to all federal, state and local government web resources and services.